Location: ?astrovice
(49.6513°N, 14.9287°E)
Time: 01:11:35
(UTC+00:00)

X-37B - Pass Details

Date: 08 August 2021
Orbit: 381 x 393 km, 45.0° (Epoch: 29 August)

Event Time Altitude Azimuth Distance (km) Brightness Sun altitude
Exits shadow 01:37:26 31° 162° (SSE) 697 1.5 -16.2°
Drops below altitude 10° 01:40:03 10° 107° (ESE) 1,398 3.7 -16.0°
Sets 01:42:14 0° 97° (E) 2,251 4.9 -15.8°
